�������l�o���
Date,Time,MP-1(��Sv/h),MP-2(��Sv/h),MP-3(��Sv/h),MP-4(��Sv/h),MP-5(��Sv/h),MP-6(��Sv/h),MP-7(��Sv/h),MP-8(��Sv/h),����,����(m/s),���J
2019/03/06,00:00,0.753,1.100,0.763,1.414,1.017,0.432,0.769,0.731,�쐼,3.7,��
2019/03/06,00:10,0.752,1.100,0.764,1.416,1.015,0.433,0.770,0.730,�쐼,4.5,��
2019/03/06,00:20,0.752,1.101,0.763,1.412,1.014,0.433,0.769,0.733,�쐼,3.7,��
2019/03/06,00:30,0.752,1.099,0.764,1.413,1.016,0.431,0.768,0.730,�쐼,3.5,��
2019/03/06,00:40,0.753,1.099,0.766,1.415,1.015,0.433,0.769,0.732,���쐼,3.6,��
2019/03/06,00:50,0.750,1.097,0.764,1.413,1.018,0.433,0.770,0.732,�쐼,4.2,��
2019/03/06,01:00,0.752,1.099,0.763,1.412,1.017,0.433,0.770,0.732,�쐼,3.6,��
2019/03/06,01:10,0.753,1.100,0.762,1.409,1.019,0.434,0.771,0.733,�쐼,3.4,��
2019/03/06,01:20,0.753,1.099,0.764,1.413,1.017,0.433,0.771,0.732,�쐼,2.6,��
2019/03/06,01:30,0.752,1.100,0.764,1.411,1.017,0.434,0.769,0.733,�쐼,3.0,��
2019/03/06,01:40,0.752,1.099,0.763,1.414,1.015,0.434,0.772,0.732,�쐼,3.3,��
2019/03/06,01:50,0.754,1.100,0.764,1.412,1.018,0.433,0.770,0.733,�쐼,3.2,��
2019/03/06,02:00,0.755,1.101,0.764,1.415,1.018,0.433,0.769,0.733,��쐼,3.2,��
2019/03/06,02:10,0.753,1.099,0.763,1.412,1.016,0.433,0.772,0.733,��쐼,2.0,��
2019/03/06,02:20,0.752,1.101,0.764,1.413,1.017,0.435,0.769,0.731,��,2.0,��
2019/03/06,02:30,0.752,1.101,0.764,1.413,1.018,0.432,0.770,0.732,��쐼,1.7,��
2019/03/06,02:40,0.753,1.098,0.765,1.413,1.017,0.433,0.770,0.733,��쐼,2.0,��
2019/03/06,02:50,0.754,1.099,0.765,1.414,1.017,0.435,0.771,0.732,��쐼,2.5,��
2019/03/06,03:00,0.753,1.101,0.764,1.413,1.016,0.436,0.771,0.734,��,2.3,��
2019/03/06,03:10,0.752,1.101,0.766,1.413,1.017,0.434,0.772,0.732,��쓌,1.8,��
2019/03/06,03:20,0.754,1.100,0.766,1.414,1.016,0.435,0.772,0.732,��쓌,2.0,��
2019/03/06,03:30,0.756,1.100,0.766,1.411,1.017,0.434,0.772,0.733,��,2.2,��
2019/03/06,03:40,0.753,1.100,0.765,1.411,1.018,0.433,0.770,0.732,��쐼,2.6,��
2019/03/06,03:50,0.754,1.103,0.763,1.414,1.017,0.435,0.772,0.733,��쐼,3.4,��
2019/03/06,04:00,0.755,1.101,0.764,1.413,1.017,0.436,0.771,0.732,��,3.5,��
2019/03/06,04:10,0.755,1.100,0.767,1.414,1.017,0.434,0.772,0.732,��,2.6,��
2019/03/06,04:20,0.755,1.099,0.764,1.414,1.015,0.434,0.770,0.735,��쐼,3.3,��
2019/03/06,04:30,0.755,1.099,0.765,1.411,1.018,0.434,0.773,0.734,��,4.8,��
2019/03/06,04:40,0.755,1.102,0.764,1.414,1.018,0.435,0.772,0.733,��쐼,5.2,��
2019/03/06,04:50,0.755,1.101,0.764,1.414,1.018,0.434,0.771,0.732,��쐼,5.5,��
2019/03/06,05:00,0.756,1.100,0.766,1.412,1.017,0.435,0.774,0.735,��쐼,4.8,��
2019/03/06,05:10,0.753,1.101,0.767,1.415,1.017,0.435,0.772,0.733,��,5.7,��
2019/03/06,05:20,0.753,1.100,0.766,1.414,1.017,0.435,0.773,0.733,��,5.1,��
2019/03/06,05:30,0.755,1.102,0.766,1.413,1.017,0.434,0.772,0.733,��,6.6,��
2019/03/06,05:40,0.754,1.098,0.765,1.415,1.016,0.435,0.773,0.733,��,7.5,��
2019/03/06,05:50,0.755,1.102,0.765,1.414,1.019,0.435,0.771,0.734,��,8.0,��
2019/03/06,06:00,0.753,1.103,0.765,1.412,1.019,0.433,0.771,0.732,��,8.0,��
2019/03/06,06:10,0.754,1.102,0.766,1.416,1.018,0.434,0.771,0.732,��,8.5,��
2019/03/06,06:20,0.755,1.101,0.766,1.412,1.017,0.433,0.773,0.731,��,7.9,��
2019/03/06,06:30,0.756,1.101,0.764,1.416,1.016,0.434,0.773,0.732,��,8.6,��
2019/03/06,06:40,0.757,1.100,0.765,1.414,1.016,0.434,0.774,0.733,��,8.4,��
2019/03/06,06:50,0.756,1.100,0.763,1.415,1.017,0.433,0.772,0.735,��,7.7,��
2019/03/06,07:00,0.755,1.100,0.765,1.412,1.017,0.435,0.772,0.732,��쐼,8.1,��
2019/03/06,07:10,0.756,1.100,0.766,1.412,1.018,0.434,0.772,0.735,��쐼,9.0,��
2019/03/06,07:20,0.757,1.097,0.764,1.415,1.017,0.436,0.773,0.734,��쐼,8.5,��
2019/03/06,07:30,0.757,1.098,0.766,1.413,1.016,0.435,0.774,0.733,��쐼,8.3,��
2019/03/06,07:40,0.754,1.099,0.766,1.414,1.017,0.435,0.774,0.733,��쐼,8.6,��
2019/03/06,07:50,0.753,1.100,0.765,1.416,1.019,0.434,0.773,0.733,��,9.5,��
2019/03/06,08:00,0.755,1.100,0.766,1.414,1.019,0.435,0.774,0.734,��,9.6,��
2019/03/06,08:10,0.755,1.103,0.767,1.413,1.016,0.435,0.773,0.734,��,9.1,��
2019/03/06,08:20,0.757,1.099,0.765,1.413,1.019,0.437,0.774,0.734,��,8.5,��
2019/03/06,08:30,0.756,1.100,0.765,1.413,1.021,0.435,0.774,0.735,��쐼,7.6,��
2019/03/06,08:40,0.757,1.101,0.765,1.415,1.019,0.435,0.774,0.734,��쐼,7.9,��
2019/03/06,08:50,0.757,1.100,0.768,1.415,1.022,0.435,0.772,0.734,��쐼,7.9,��
2019/03/06,09:00,0.759,1.100,0.768,1.416,1.020,0.425,0.773,0.734,��,7.5,��
2019/03/06,09:10,0.758,1.100,0.768,1.416,1.019,0.422,0.773,0.736,��,6.8,��
2019/03/06,09:20,0.759,1.101,0.767,1.414,1.021,0.427,0.773,0.734,��,5.9,��
2019/03/06,09:30,0.757,1.101,0.768,1.416,1.023,0.425,0.772,0.736,��,7.2,��
2019/03/06,09:40,0.761,1.103,0.766,1.416,1.021,-,0.773,0.734,��쐼,7.0,��
2019/03/06,09:50,0.759,1.100,0.768,1.417,1.022,-,0.772,0.736,��,6.1,��
2019/03/06,10:00,0.759,1.100,0.767,1.417,1.022,-,0.773,0.736,��,7.8,��
2019/03/06,10:10,0.757,1.101,0.768,1.418,1.023,-,0.774,0.735,��쐼,7.6,��
2019/03/06,10:20,0.761,1.102,0.769,1.417,1.024,0.421,0.774,0.736,��,6.5,��
2019/03/06,10:30,0.760,1.100,0.769,1.418,1.022,0.422,0.774,0.734,��쐼,5.7,��
2019/03/06,10:40,0.760,1.101,0.767,1.418,1.021,0.421,0.775,0.734,��쐼,7.7,��
2019/03/06,10:50,0.760,1.104,0.769,1.420,1.019,0.424,0.773,0.732,��쐼,6.4,��
2019/03/06,11:00,0.759,1.103,0.768,1.418,1.019,0.427,0.772,0.733,��,5.4,��
2019/03/06,11:10,0.759,1.100,0.770,1.418,1.019,0.427,0.773,0.732,��쐼,4.6,��
2019/03/06,11:20,0.758,1.100,0.772,1.419,1.021,0.427,0.775,0.733,��,5.8,��
2019/03/06,11:30,0.761,1.106,0.770,1.419,1.021,0.420,0.775,0.735,��,5.5,��
2019/03/06,11:40,0.761,1.106,0.771,1.417,1.021,0.429,0.774,0.734,��,6.8,��
2019/03/06,11:50,0.761,1.106,0.772,1.421,1.023,0.429,0.774,0.733,��,4.3,��
2019/03/06,12:00,0.761,1.107,0.771,1.419,1.021,0.429,0.777,0.733,��,4.8,��
2019/03/06,12:10,0.760,1.104,0.771,1.419,1.022,0.429,0.774,0.734,��,5.1,��
2019/03/06,12:20,0.760,1.106,0.771,1.421,1.024,0.430,0.775,0.734,��쐼,4.8,��
2019/03/06,12:30,0.761,1.105,0.770,1.421,1.022,0.431,0.778,0.737,��,4.4,��
2019/03/06,12:40,0.759,1.107,0.772,1.421,1.025,0.432,0.777,0.735,��쐼,6.3,��
2019/03/06,12:50,0.760,1.104,0.769,1.421,1.024,0.432,0.774,0.732,��쐼,7.5,��
2019/03/06,13:00,0.758,1.109,0.768,1.424,1.024,0.430,0.777,0.734,��쐼,6.0,��
2019/03/06,13:10,0.762,1.109,0.769,1.421,1.025,0.433,0.776,0.735,�쐼,8.3,��
2019/03/06,13:20,0.762,1.106,0.770,1.421,1.024,0.433,0.776,0.734,�쐼,8.3,��
2019/03/06,13:30,0.762,1.102,0.771,1.421,1.026,0.432,0.777,0.733,��쐼,7.6,��
2019/03/06,13:40,0.760,1.105,0.768,1.425,1.025,0.431,0.778,0.733,��,7.2,��
2019/03/06,13:50,0.761,1.107,0.769,1.425,1.025,0.429,0.777,0.734,��,8.3,��
2019/03/06,14:00,0.761,1.104,0.769,1.422,1.026,0.429,0.777,0.734,��,8.2,��
2019/03/06,14:10,0.763,1.107,0.769,1.424,1.028,0.430,0.777,0.733,��,7.2,��
2019/03/06,14:20,0.762,1.106,0.770,1.423,1.027,0.430,0.776,0.733,��,7.3,��
2019/03/06,14:30,0.760,1.105,0.771,1.424,1.026,0.431,0.776,0.734,��쓌,8.6,��
2019/03/06,14:40,0.762,1.109,0.769,1.422,1.027,-,0.777,0.734,��,8.5,��
2019/03/06,14:50,0.763,1.107,0.770,1.425,1.024,-,0.777,0.734,��,8.6,��
2019/03/06,15:00,0.761,1.109,0.770,1.422,1.025,-,0.778,0.734,��쓌,7.8,��
2019/03/06,15:10,0.761,1.107,0.771,1.425,1.029,0.429,0.777,0.734,��쓌,8.8,��
2019/03/06,15:20,0.760,1.110,0.771,1.425,1.026,0.430,0.778,0.734,��,10.5,��
2019/03/06,15:30,0.763,1.113,0.770,1.424,1.025,0.432,0.777,0.735,��,11.3,��
2019/03/06,15:40,0.763,1.112,0.772,1.426,1.028,0.441,0.777,0.733,��,8.7,��
2019/03/06,15:50,0.761,1.112,0.769,1.425,1.026,0.440,0.777,0.735,��,8.4,��
2019/03/06,16:00,0.762,1.117,0.774,1.425,1.027,0.442,0.777,0.733,��,8.2,��
2019/03/06,16:10,0.763,1.117,0.771,1.428,1.027,0.442,0.775,0.734,��,7.6,��
2019/03/06,16:20,0.762,1.118,0.772,1.425,1.027,0.441,0.777,0.735,��,7.5,��
2019/03/06,16:30,0.764,1.116,0.773,1.424,1.028,0.443,0.776,0.735,��,8.2,��
2019/03/06,16:40,0.762,1.117,0.771,1.423,1.025,0.442,0.777,0.737,��,7.5,��
2019/03/06,16:50,0.763,1.118,0.770,1.423,1.024,0.443,0.777,0.738,��,7.3,��
2019/03/06,17:00,0.765,1.119,0.774,1.423,1.028,0.442,0.775,0.739,��,7.5,��
2019/03/06,17:10,0.763,1.118,0.774,1.424,1.027,0.443,0.776,0.737,��,7.4,��
2019/03/06,17:20,0.766,1.120,0.774,1.424,1.026,0.441,0.776,0.738,��,6.4,��
2019/03/06,17:30,0.765,1.119,0.773,1.425,1.029,0.441,0.778,0.739,��쐼,7.0,��
2019/03/06,17:40,0.765,1.120,0.774,1.424,1.029,0.440,0.778,0.736,��쐼,6.9,��
2019/03/06,17:50,0.765,1.118,0.774,1.424,1.031,0.441,0.778,0.738,��쐼,7.0,��
2019/03/06,18:00,0.764,1.118,0.773,1.426,1.029,0.442,0.777,0.737,��쐼,7.0,��
2019/03/06,18:10,0.766,1.115,0.775,1.425,1.032,0.442,0.776,0.737,��쐼,6.8,��
2019/03/06,18:20,0.764,1.118,0.775,1.426,1.031,0.443,0.778,0.736,��쐼,6.8,��
2019/03/06,18:30,0.764,1.115,0.773,1.425,1.031,0.443,0.777,0.737,��쐼,7.3,��
2019/03/06,18:40,0.767,1.116,0.774,1.425,1.030,0.442,0.778,0.738,��쐼,7.3,��
2019/03/06,18:50,0.766,1.115,0.773,1.425,1.032,0.441,0.778,0.738,�쐼,6.3,��
2019/03/06,19:00,0.762,1.116,0.773,1.427,1.030,0.443,0.778,0.737,�쐼,6.1,��
2019/03/06,19:10,0.766,1.116,0.773,1.425,1.029,0.441,0.776,0.737,�쐼,6.0,��
2019/03/06,19:20,0.764,1.116,0.772,1.424,1.031,0.442,0.778,0.737,�쐼,6.6,��
2019/03/06,19:30,0.764,1.118,0.772,1.426,1.031,0.441,0.777,0.738,�쐼,6.1,��
2019/03/06,19:40,0.765,1.114,0.773,1.426,1.032,0.442,0.778,0.737,�쐼,6.1,��
2019/03/06,19:50,0.764,1.118,0.774,1.426,1.031,0.441,0.780,0.738,�쐼,5.6,��
2019/03/06,20:00,0.765,1.116,0.776,1.425,1.032,0.442,0.777,0.736,�쐼,5.0,��
2019/03/06,20:10,0.765,1.114,0.775,1.425,1.030,0.440,0.778,0.737,�쐼,4.8,��
2019/03/06,20:20,0.764,1.115,0.774,1.426,1.031,0.440,0.778,0.736,���쐼,3.4,��
2019/03/06,20:30,0.763,1.114,0.774,1.423,1.029,0.441,0.778,0.736,�쐼,3.2,��
2019/03/06,20:40,0.765,1.115,0.773,1.423,1.029,0.441,0.778,0.738,���쐼,2.6,��
2019/03/06,20:50,0.765,1.115,0.771,1.418,1.031,0.441,0.777,0.736,���쐼,2.6,��
2019/03/06,21:00,0.764,1.117,0.774,1.424,1.030,0.441,0.779,0.736,���쐼,3.3,��
2019/03/06,21:10,0.763,1.115,0.775,1.425,1.029,0.440,0.778,0.737,���쐼,2.6,��
2019/03/06,21:20,0.764,1.119,0.775,1.427,1.030,0.441,0.779,0.738,���쐼,2.2,��
2019/03/06,21:30,0.765,1.116,0.773,1.424,1.030,0.441,0.778,0.736,��,2.3,��
2019/03/06,21:40,0.766,1.113,0.773,1.423,1.030,0.441,0.777,0.738,�쐼,1.2,��
2019/03/06,21:50,0.762,1.116,0.775,1.424,1.031,0.439,0.777,0.737,��쐼,0.9,��
2019/03/06,22:00,0.764,1.115,0.773,1.426,1.032,0.441,0.778,0.736,��쐼,1.5,��
2019/03/06,22:10,0.765,1.116,0.774,1.425,1.029,0.441,0.778,0.738,�쐼,0.9,��
2019/03/06,22:20,0.764,1.117,0.774,1.426,1.031,0.440,0.779,0.738,���쐼,1.2,��
2019/03/06,22:30,0.763,1.117,0.772,1.425,1.031,0.441,0.777,0.738,-,CALM,��
2019/03/06,22:40,0.765,1.116,0.773,1.428,1.030,0.439,0.777,0.737,�k�k��,0.6,��
2019/03/06,22:50,0.766,1.113,0.773,1.426,1.031,0.439,0.780,0.738,�k,2.3,��
2019/03/06,23:00,0.766,1.116,0.776,1.428,1.031,0.441,0.780,0.738,�k�k��,3.1,��
2019/03/06,23:10,0.765,1.114,0.774,1.426,1.031,0.441,0.777,0.736,�k,3.6,��
2019/03/06,23:20,0.764,1.115,0.777,1.426,1.029,0.440,0.777,0.738,�k,2.8,��
2019/03/06,23:30,0.764,1.115,0.776,1.427,1.031,0.442,0.777,0.736,�k,3.2,��
2019/03/06,23:40,0.765,1.116,0.774,1.426,1.032,0.441,0.777,0.738,�k,2.8,��
2019/03/06,23:50,0.764,1.113,0.773,1.427,1.032,0.440,0.778,0.737,�k,1.7,��
